{"data":{"norad_id":55291,"epoch":"2026-09-20T22:45:31.836096Z","epoch_age_seconds":54634,"freshness":"FRESH","line1":"1 55291U 23010Y   26263.94828514 -.00000058  00000+0  29245-5 0  9998","line2":"2 55291  69.9984 252.2703 0002997 273.2885  86.7931 14.98330072202513","mean_motion":14.98330072,"eccentricity":0.0002997,"inclination_deg":69.9984,"raan_deg":252.2703,"arg_perigee_deg":273.2885,"mean_anomaly_deg":86.7931,"bstar":2.9245e-6,"rev_number":20251,"period_min":96.106994507416,"perigee_km":569.97269554768,"apogee_km":574.13864103305,"semimajor_km":6950.1926682904,"source":"CELESTRAK","updated_at":"2026-09-21T09:00:33.169373Z"}}